Weather Roundup
Issued by NWS Chicago, IL

Home | Current Version | Previous Version | Graphics & Text | Print | Product List | Glossary On
Versions: 1 2 3 4 5 6 7 8 9 10 11 12 13 14 15 16 17 18 19 20 21 22 23 24 25 26 27 28 29 30 31 32 33 34 35 36 37 38 39 40 41 42 43 44 45 46 47 48 49 50
000
NZUS59 KLOT 252209
HRRLOT

CHICAGO AREA WEATHER ROUNDUP
NATIONAL WEATHER SERVICE CHICAGO/ROMEOVILLE IL
500 PM CDT THU AUG 25 2016

NOTE: "FAIR" INDICATES FEW OR NO CLOUDS BELOW 12,000 FEET WITH NO
SIGNIFICANT WEATHER AND/OR OBSTRUCTIONS TO VISIBILITY.

* THESE STATIONS ARE NOT UNDER NWS QUALITY CONTROL. THEY ALSO MAY NOT
  REPORT WEATHER SUCH AS PRECIPITATION OR FOG.

ILZ005-006-012>014-019>023-252300-
NORTHEAST ILLINOIS

CITY           SKY/WX    TMP DP  RH WIND       PRES   REMARKS
OHARE          CLOUDY    80  66  62 NW10      30.02S HX  82
MIDWAY         CLOUDY    83  64  52 W7        30.01S HX  84
AURORA         CLOUDY    77  67  71 NW5       30.04S
LANSING*       CLOUDY    82  67  60 W8        30.02S HX  85
JOLIET*        CLOUDY    81  69  66 NW5       30.03S HX  84
WAUKEGAN       CLOUDY    79  61  53 VRB3      30.02S HX  80
DUPAGE AIRPORT CLOUDY    78  64  61 W10       30.04R HX  80
WHEELING       CLOUDY    80  63  55 W10       30.03S HX  81
KANKAKEE*      MOSUNNY   84  72  66 W3        30.03F HX  90
MORRIS*        CLOUDY    79  69  72 NW5       30.02S HX  82
LEWIS AIRPORT* CLOUDY    78  71  77 W5        30.04R HX  81
NORTHERLY ISL    N/A     73  69  87 N1          N/A
$$

WIZ051-052-058>065-066-070>072-252300-
SOUTHEAST WISCONSIN

CITY           SKY/WX    TMP DP  RH WIND       PRES   REMARKS
MILWAUKEE      CLOUDY    80  63  55 SE6       30.03R HX  81
KENOSHA*       CLOUDY    78  63  59 W10       30.03S HX  80
RACINE*        CLOUDY    80  60  50 W7        30.04R HX  81
BURLINGTON     CLOUDY    75  57  52 W6        30.04S
WAUKESHA       SUNNY     75  57  53 W10       30.04S
$$

INZ001>003-010>013-019-020-252300-
NORTHWEST INDIANA

CITY           SKY/WX    TMP DP  RH WIND       PRES   REMARKS
GARY*          PTSUNNY   81  72  74 VRB5      30.04  HX  84
MICHIGAN CITY* NOT AVBL
RENSSELAER*    NOT AVBL
VALPARAISO     LGT RAIN  78  73  84 CALM      30.03F HX  81
$$

LMZ740>746-252300-
SOUTHERN LAKE MICHIGAN

STATION/POSITION TIME  SKY/WX   TEMP WIND        PRES    VSBY
                                AIR  DIR/SP/G
                 (UTC)          (F)  (DEG/KT/KT) (MB)    (MI)
HARRISON CRIB    2100            74   90/  7/  8   N/A
BURNHAM HARBOR   2200            73   30/  4/  4   N/A
CALUMET HARBOR   2100            74   80/  7/ 11 1016.1F
BURNS HARBOR     2100            77   50/  6/  6 1017.6S
MICHIGAN CITY    2100            79  350/  3/  3   N/A
$$

ABBREVIATIONS USED IN REMARKS
   TC - TEMPERATURE IN CELSIUS
  WCI - WIND CHILL INDEX
   HX - HEAT INDEX
  VSB - VISIBILITY
$$




USA.gov is the U.S. government's official web portal to all federal, state and local government web resources and services.